Tiempo cada hora Quillota

Hoy, 28 Octubre, Miércoles

Tiempo Temperatura Precipitaciones Viento Presión Humedad
00:00 +8°C° 0 mm 2 mps 753 mmHg 91%
01:00 +8°C° 0 mm 2 mps 754 mmHg 88%
02:00 +8°C° 0 mm 2 mps 754 mmHg 88%
03:00 +7°C° 0 mm 2 mps 754 mmHg 87%
04:00 +7°C° 0 mm 2 mps 754 mmHg 87%
05:00 +9°C° 0 mm 2 mps 754 mmHg 78%
06:00 +13°C° 0 mm 2 mps 754 mmHg 69%
07:00 +16°C° 0 mm 2 mps 754 mmHg 60%
08:00 +18°C° 0 mm 3 mps 754 mmHg 52%
09:00 +21°C° 0 mm 3 mps 753 mmHg 43%
10:00 +23°C° 0 mm 4 mps 753 mmHg 35%
11:00 +25°C° 0 mm 4 mps 753 mmHg 32%
12:00 +26°C° 0 mm 5 mps 753 mmHg 30%
13:00 +27°C° 0 mm 5 mps 752 mmHg 28%
14:00 +26°C° 0 mm 5 mps 752 mmHg 30%
15:00 +26°C° 0 mm 5 mps 752 mmHg 33%
16:00 +25°C° 0 mm 4 mps 752 mmHg 35%
17:00 +20°C° 0 mm 3 mps 752 mmHg 49%
18:00 +17°C° 0 mm 3 mps 752 mmHg 63%
19:00 +13°C° 0 mm 2 mps 752 mmHg 77%
20:00 +12°C° 0 mm 1 mps 752 mmHg 78%
21:00 +12°C° 0 mm 1 mps 752 mmHg 79%
22:00 +11°C° 0 mm 1 mps 752 mmHg 80%
23:00 +11°C° 0 mm 1 mps 751 mmHg 80%

Mañana, 29 Octubre, Jueves

Tiempo Temperatura Precipitaciones Viento Presión Humedad
00:00 +11°C° 0 mm 1 mps 751 mmHg 80%
01:00 +10°C° 0 mm 1 mps 751 mmHg 80%
02:00 +10°C° 0 mm 1 mps 751 mmHg 78%
03:00 +10°C° 0 mm 1 mps 750 mmHg 77%
04:00 +10°C° 0 mm 1 mps 750 mmHg 75%
05:00 +14°C° 0 mm 1 mps 750 mmHg 65%
06:00 +16°C° 0 mm 0 mps 751 mmHg 54%
07:00 +19°C° 0 mm 0 mps 751 mmHg 44%
08:00 +23°C° 0 mm 1 mps 751 mmHg 40%
09:00 +25°C° 0 mm 2 mps 750 mmHg 37%
10:00 +27°C° 0 mm 3 mps 750 mmHg 33%
11:00 +27°C° 0 mm 3 mps 750 mmHg 33%
12:00 +28°C° 0 mm 3 mps 750 mmHg 33%
13:00 +28°C° 0 mm 4 mps 750 mmHg 33%
14:00 +27°C° 0 mm 3 mps 750 mmHg 35%
15:00 +26°C° 0 mm 3 mps 750 mmHg 38%
16:00 +25°C° 0 mm 3 mps 750 mmHg 41%
17:00 +20°C° 0 mm 2 mps 750 mmHg 56%
18:00 +16°C° 0 mm 1 mps 751 mmHg 70%
19:00 +11°C° 0 mm 0 mps 751 mmHg 85%
20:00 +11°C° 0 mm 0 mps 751 mmHg 85%
21:00 +10°C° 0 mm 0 mps 751 mmHg 85%
22:00 +10°C° 0 mm 0 mps 752 mmHg 85%
23:00 +10°C° 0 mm 0 mps 751 mmHg 84%

Pasado mañana, 30 Octubre, Viernes

Tiempo Temperatura Precipitaciones Viento Presión Humedad
00:00 +10°C° 0 mm 0 mps 751 mmHg 84%
01:00 +10°C° 0 mm 0 mps 751 mmHg 83%
02:00 +9°C° 0 mm 0 mps 751 mmHg 83%
03:00 +9°C° 0 mm 0 mps 751 mmHg 82%
04:00 +9°C° 0 mm 0 mps 751 mmHg 82%
05:00 +13°C° 0 mm 0 mps 751 mmHg 70%
06:00 +16°C° 0 mm 0 mps 751 mmHg 58%
07:00 +20°C° 0 mm 0 mps 751 mmHg 46%
08:00 +24°C° 0 mm 1 mps 751 mmHg 42%
09:00 +26°C° 0 mm 2 mps 751 mmHg 38%
10:00 +28°C° 0 mm 2 mps 751 mmHg 34%
11:00 +28°C° 0 mm 3 mps 751 mmHg 34%
12:00 +28°C° 0 mm 3 mps 751 mmHg 35%
13:00 +29°C° 0 mm 3 mps 750 mmHg 35%
14:00 +27°C° 0 mm 3 mps 750 mmHg 39%
15:00 +26°C° 0 mm 3 mps 750 mmHg 43%
16:00 +25°C° 0 mm 3 mps 750 mmHg 47%
17:00 +20°C° 0 mm 2 mps 751 mmHg 60%
18:00 +18°C° 0 mm 1 mps 751 mmHg 73%
19:00 +12°C° 0 mm 0 mps 751 mmHg 87%
20:00 +12°C° 0 mm 0 mps 751 mmHg 87%
21:00 +12°C° 0 mm 0 mps 751 mmHg 87%
22:00 +12°C° 0 mm 0 mps 751 mmHg 87%
23:00 +12°C° 0 mm 0 mps 751 mmHg 86%

31 Octubre, Sábado

Tiempo Temperatura Precipitaciones Viento Presión Humedad
00:00 +12°C° 0 mm 0 mps 751 mmHg 85%
01:00 +12°C° 0 mm 0 mps 750 mmHg 84%
02:00 +11°C° 0 mm 0 mps 750 mmHg 83%
03:00 +11°C° 0 mm 0 mps 750 mmHg 83%
04:00 +11°C° 0 mm 0 mps 750 mmHg 82%
05:00 +14°C° 0 mm 0 mps 750 mmHg 72%
06:00 +20°C° 0 mm 1 mps 751 mmHg 62%
07:00 +23°C° 0 mm 1 mps 751 mmHg 51%
08:00 +25°C° 0 mm 1 mps 751 mmHg 47%
09:00 +26°C° 0 mm 2 mps 751 mmHg 43%
10:00 +28°C° 0 mm 3 mps 751 mmHg 39%
11:00 +28°C° 0 mm 3 mps 751 mmHg 39%
12:00 +28°C° 0 mm 3 mps 751 mmHg 39%
13:00 +28°C° 0 mm 4 mps 751 mmHg 40%
14:00 +27°C° 0 mm 3 mps 751 mmHg 42%
15:00 +26°C° 0 mm 3 mps 751 mmHg 44%
16:00 +25°C° 0 mm 2 mps 751 mmHg 47%
17:00 +21°C° 0 mm 2 mps 751 mmHg 60%
18:00 +18°C° 0 mm 1 mps 751 mmHg 73%
19:00 +13°C° 0 mm 0 mps 752 mmHg 86%
20:00 +12°C° 0 mm 0 mps 752 mmHg 86%
21:00 +12°C° 0 mm 0 mps 752 mmHg 85%
22:00 +12°C° 0 mm 0 mps 752 mmHg 85%
23:00 +12°C° 0 mm 0 mps 751 mmHg 85%

1 Noviembre, Domingo

Tiempo Temperatura Precipitaciones Viento Presión Humedad
00:00 +12°C° 0 mm 0 mps 751 mmHg 86%
01:00 +12°C° 0 mm 0 mps 751 mmHg 86%
02:00 +12°C° 0 mm 0 mps 751 mmHg 87%
03:00 +11°C° 0 mm 0 mps 751 mmHg 88%
04:00 +11°C° 0 mm 0 mps 751 mmHg 89%
05:00 +14°C° 0 mm 0 mps 751 mmHg 78%
06:00 +17°C° 0 mm 0 mps 751 mmHg 68%
07:00 +20°C° 0 mm 0 mps 751 mmHg 57%
08:00 +24°C° 0 mm 1 mps 751 mmHg 52%
09:00 +25°C° 0 mm 2 mps 751 mmHg 48%
10:00 +27°C° 0 mm 3 mps 751 mmHg 43%
11:00 +27°C° 0 mm 3 mps 751 mmHg 44%
12:00 +27°C° 0 mm 3 mps 751 mmHg 44%
13:00 +27°C° 0 mm 4 mps 751 mmHg 45%
14:00 +26°C° 0 mm 3 mps 751 mmHg 47%
15:00 +25°C° 0 mm 3 mps 751 mmHg 48%
16:00 +25°C° 0 mm 2 mps 751 mmHg 50%
17:00 +20°C° 0 mm 2 mps 751 mmHg 63%
18:00 +18°C° 0 mm 1 mps 751 mmHg 75%
19:00 +12°C° 0 mm 0 mps 751 mmHg 88%
20:00 +12°C° 0 mm 0 mps 751 mmHg 88%
21:00 +12°C° 0 mm 0 mps 751 mmHg 88%
22:00 +12°C° 0 mm 0 mps 752 mmHg 89%
23:00 +11°C° 0 mm 0 mps 751 mmHg 89%

2 Noviembre, Lunes

Tiempo Temperatura Precipitaciones Viento Presión Humedad
00:00 +11°C° 0 mm 0 mps 751 mmHg 89%
01:00 +11°C° 0 mm 0 mps 751 mmHg 89%
02:00 +10°C° 0 mm 0 mps 751 mmHg 89%
03:00 +10°C° 0 mm 0 mps 751 mmHg 90%
04:00 +10°C° 0 mm 0 mps 751 mmHg 90%
05:00 +13°C° 0 mm 0 mps 751 mmHg 80%
06:00 +16°C° 0 mm 0 mps 751 mmHg 70%
07:00 +21°C° 0 mm 1 mps 751 mmHg 60%
08:00 +23°C° 0 mm 1 mps 751 mmHg 54%
09:00 +25°C° 0 mm 2 mps 751 mmHg 48%
10:00 +27°C° 0 mm 3 mps 751 mmHg 42%
11:00 +27°C° 0 mm 3 mps 751 mmHg 40%
12:00 +27°C° 0 mm 3 mps 751 mmHg 39%
13:00 +27°C° 0 mm 3 mps 751 mmHg 37%
14:00 +26°C° 0 mm 3 mps 751 mmHg 39%
15:00 +25°C° 0 mm 3 mps 751 mmHg 41%
16:00 +24°C° 0 mm 3 mps 751 mmHg 43%
17:00 +19°C° 0 mm 2 mps 751 mmHg 57%
18:00 +16°C° 0 mm 1 mps 751 mmHg 72%
19:00 +12°C° 0 mm 1 mps 751 mmHg 86%
20:00 +10°C° 0 mm 0 mps 751 mmHg 86%
21:00 +10°C° 0 mm 0 mps 752 mmHg 87%
22:00 +9°C° 0 mm 0 mps 752 mmHg 87%
23:00 +9°C° 0 mm 0 mps 752 mmHg 86%
Mostrar más

Necesitamos Su Consentimiento

Meteoprog y nuestros Proveedores de Servicios pueden almacenar y acceder a sus datos personales como cookies, identificadores de dispositivo u otras tecnologías similares de su dispositivo y procesar dichos datos para personalizar contenido y anuncios, además de ofrecer funciones de redes sociales y analizar el tráfico.

  • Almacenar y/o acceder a información en su dispositivo

    Se puede almacenar o acceder a cookies, identificadores de dispositivo u otra información de su dispositivo para los fines anteriormente indicados.

  • Anuncios y contenido personalizados, medición de anuncios y contenido, percepciones del público, y desarrollo de productos

    Los anuncios y el contenido pueden personalizarse en base a su perfil. Se pueden añadir más datos para personalizar mejor los anuncios y contenidos. Se puede medir el rendimiento de los anuncios y contenidos. Se puede obtener la percepción sobre el público que ha visto los anuncios y contenidos. Dichos datos pueden usarse para desarrollar o mejorar la experiencia del usuario, sistemas y software.

Al hacer clic en ‘Estoy De Acuerdo’ usted permitirá el uso de las cookies, identificadores de dispositivo, balizas web u otras tecnologías similares indicadas. Su configuración puede cambiarse desde el navegador de su dispositivo.

Para ciertos fines, los intereses legítimos pueden ser considerados por encima del consentimiento. Puede leer más sobre ello en nuestra Política de Privacidad y Cookies.